Tracking 23757 objects as of 26-Oct-2021
HD Live streaming from Space Station
objects crossing your sky now

BREEZE-M DEB

Track BREEZE-M DEB now!


NORAD ID: 38577
Int'l Code: 2008-011Y
Perigee: 547.9 km
Apogee: 27,361.9 km
Inclination: 48.7 °
Period: 480.7 minutes
Semi major axis: 20325 km
RCS: 0.113 m2 (medium)
Launch date: March 14, 2008
Source: Commonwealth of Independent States (former USSR) (CIS)
Launch site: TYURATAM MISSILE AND SPACE COMPLEX (TTMTR)

Note: This is SATELLITE DEBRIS
aabbcc
Your satellite tracking list
Your tracking list is empty




NASA's NSSDC Master Catalog

Two Line Element Set (TLE):
1 38577U 08011Y   21298.66050424 -.00000771  00000-0 -49770-2 0  9995
2 38577  48.7345 222.6882 6596014  76.0121 358.8153  2.99591065119179
Source of the keplerian elements: AFSPC